Weather History for Green Bay, WI

Change the Weather History Date:

Saturday, February 8, 2014

  Actual Average Record
Temperature  
Mean Temperature 2 °F 18 °F  
Max Temperature 13 °F 26 °F 56 °F (1925)
Min Temperature -10 °F 11 °F -22 °F (1951)
Degree Days  
Heating Degree Days 63 47  
Month to date heating degree days 493 378  
Since 1 July heating degree days 5386 4967  
Cooling Degree Days 0 0  
Month to date cooling degree days 0 0  
Year to date cooling degree days 0 0  
Moisture  
Dew Point 0 °F    
Average Humidity 76    
Maximum Humidity 91    
Minimum Humidity 61    
Precipitation  
Precipitation T in 0.03 in 1.78 in (1966)
Month to date precipitation 0.02 0.26  
Year to date precipitation 1.35 1.39  
Snow  
Snow 0.10 in 0.30 in 5.70 in (1950)
Month to date snowfall 0.4 3.0  
Since 1 July snowfall 45.0 33.3  
Snow Depth 15.00 in    
Sea Level Pressure  
Sea Level Pressure 30.21 in    
Wind  
Wind Speed 5 mph (SSW)    
Max Wind Speed 13 mph    
Max Gust Speed 18 mph    
Visibility 8 miles    
Events Snow    
T = Trace of Precipitation, MM = Missing Value Source: NWS Daily Summary

Daily Weather History Graph

Daily Weather History Graph

Search for Another Location

Airport:

Trip Planner

Search our weather history database for the weather conditions in past years. The results will help you decide how hot, cold, wet, or windy it might be!

Date:

Astronomy

Feb. 08, 2014 Rise Set
Actual Time 7:02 AM CST 5:11 PM CST
Civil Twilight 6:31 AM CST 5:42 PM CST
Nautical Twilight 5:57 AM CST 6:16 PM CST
Astronomical Twilight 5:23 AM CST 6:50 PM CST
Moon 12:01 PM CST (2/8) 2:17 AM CST (2/8)
Length of Visible Light 11h 10m
Length of Day
10h 09m
Waxing Gibbous, 69% of the Moon is Illuminated
Feb 8
Waxing Gibbous
Feb 14
Full
Feb 22
Last Quarter
Mar 1
New
Mar 8
First Quarter

Hourly Weather History & Observations

Time (CST) Temp. Windchill Dew Point Humidity Pressure Visibility Wind Dir Wind Speed Gust Speed Precip Events Conditions
12:53 AM 3.0 °F -11.5 °F -6.0 °F 66% 30.27 in 10.0 mi SW 9.2 mph - N/A   Clear
1:53 AM 1.0 °F -12.9 °F -6.0 °F 72% 30.27 in 10.0 mi SW 8.1 mph - N/A   Clear
2:53 AM -2.9 °F -16.5 °F -8.0 °F 79% 30.27 in 10.0 mi SSW 6.9 mph - N/A   Clear
3:53 AM -2.9 °F -13.3 °F -8.0 °F 79% 30.28 in 10.0 mi SW 4.6 mph - N/A   Clear
4:53 AM -8.0 °F -16.9 °F -11.9 °F 83% 30.27 in 9.0 mi SSE 3.5 mph - N/A   Clear
5:53 AM -7.1 °F -15.9 °F -11.0 °F 83% 30.26 in 8.0 mi South 3.5 mph - N/A   Clear
6:53 AM -8.0 °F -16.9 °F -11.9 °F 83% 30.27 in 7.0 mi SW 3.5 mph - N/A   Clear
7:53 AM -5.1 °F -15.8 °F -8.0 °F 87% 30.28 in 5.0 mi SSW 4.6 mph - N/A   Clear
8:53 AM -2.0 °F -15.4 °F -6.0 °F 83% 30.27 in 7.0 mi SSW 6.9 mph - N/A   Clear
9:53 AM 1.9 °F -9.2 °F -2.9 °F 80% 30.26 in 7.0 mi SSW 5.8 mph - N/A   Clear
10:53 AM 6.1 °F -6.8 °F -2.0 °F 69% 30.26 in 8.0 mi SW 8.1 mph - N/A   Clear
11:53 AM 9.0 °F 2.4 °F 1.0 °F 70% 30.23 in 9.0 mi South 3.5 mph - N/A   Clear
12:53 PM 12.0 °F 1.5 °F 1.9 °F 64% 30.21 in 9.0 mi SSW 6.9 mph 17.3 mph N/A   Clear
1:53 PM 12.0 °F 1.5 °F 3.0 °F 67% 30.19 in 8.0 mi South 6.9 mph - N/A   Overcast
2:53 PM 12.0 °F 2.7 °F 3.9 °F 70% 30.17 in 8.0 mi South 5.8 mph - N/A   Overcast
3:53 PM 12.9 °F -0.2 °F 3.9 °F 67% 30.18 in 10.0 mi SSW 10.4 mph 18.4 mph N/A   Overcast
4:53 PM 12.9 °F 3.8 °F 5.0 °F 71% 30.19 in 10.0 mi SSW 5.8 mph - N/A   Overcast
5:53 PM 12.0 °F 4.1 °F 5.0 °F 73% 30.19 in 10.0 mi SW 4.6 mph - N/A   Overcast
6:53 PM 12.0 °F 4.1 °F 6.1 °F 77% 30.19 in 9.0 mi SSW 4.6 mph - N/A   Overcast
7:53 PM 10.9 °F - 6.1 °F 81% 30.17 in 9.0 mi Calm Calm - N/A   Overcast
8:53 PM 10.9 °F - 6.1 °F 81% 30.17 in 8.0 mi Calm Calm - N/A   Overcast
9:53 PM 10.0 °F 3.6 °F 6.1 °F 84% 30.17 in 7.0 mi SW 3.5 mph - N/A   Overcast
10:53 PM 10.0 °F 0.4 °F 6.1 °F 84% 30.17 in 4.0 mi WSW 5.8 mph - 0.00 in Snow Light Snow
11:08 PM 10.0 °F 0.4 °F 7.0 °F 87% 30.11 in 2.5 mi WSW 5.8 mph - 0.00 in Snow Light Snow
11:40 PM 10.0 °F 1.8 °F 7.0 °F 87% 30.11 in 3.0 mi WSW 4.6 mph - 0.00 in Snow Light Snow
11:51 PM 10.4 °F 2.2 °F 6.8 °F 85% 30.11 in 2.5 mi SW 4.6 mph - 0.00 in Snow Light Snow
11:53 PM 10.0 °F 0.4 °F 7.0 °F 87% 30.17 in 2.5 mi WSW 5.8 mph - 0.00 in Snow Light Snow